ASA698 KLAX-KSEA

Flight info

Callsign ASA698
Flight time 2h 8m
Altitude 38000
Route LADYJ4 CSTRO SHIMR LKV HAWKZ8
Aircraft A20N/M-SDE2E3FGHIRWXY/LB1

Departure

Time 2026-04-22 01:38
Airport Los Angeles International Airport (KLAX)

Arrival

Time 2026-04-22 03:46
Airport Seattle–Tacoma International Airport (KSEA)
Time Latitude Longitude Altitude Speed Heading
2026-04-22 01:02 33.94144 -118.40267 95 ft 0 kts 86°
2026-04-22 01:19 33.94144 -118.40270 94 ft 1 kts 86°
2026-04-22 01:19 33.94144 -118.40279 96 ft 1 kts 86°
2026-04-22 01:20 33.94143 -118.40292 94 ft 2 kts 86°
2026-04-22 01:20 33.94142 -118.40309 94 ft 2 kts 93°
2026-04-22 01:20 33.94144 -118.40327 94 ft 2 kts 131°
2026-04-22 01:20 33.94150 -118.40333 94 ft 0 kts 167°
2026-04-22 01:23 33.94137 -118.40330 97 ft 5 kts 167°
2026-04-22 01:24 33.94088 -118.40322 96 ft 11 kts 173°
2026-04-22 01:24 33.94054 -118.40317 95 ft 1 kts 172°
2026-04-22 01:24 33.94052 -118.40317 95 ft 0 kts 172°
2026-04-22 01:25 33.94047 -118.40316 97 ft 3 kts 172°
2026-04-22 01:25 33.94002 -118.40307 97 ft 9 kts 168°
2026-04-22 01:25 33.93936 -118.40295 97 ft 10 kts 172°
2026-04-22 01:25 33.93888 -118.40288 100 ft 6 kts 172°
2026-04-22 01:26 33.93876 -118.40286 101 ft 0 kts 173°
2026-04-22 01:26 33.93869 -118.40285 102 ft 5 kts 174°
2026-04-22 01:26 33.93865 -118.40285 102 ft 0 kts 178°
2026-04-22 01:26 33.93850 -118.40301 102 ft 10 kts 234°
2026-04-22 01:27 33.93836 -118.40413 102 ft 16 kts 262°
2026-04-22 01:27 33.93821 -118.40565 102 ft 16 kts 263°
2026-04-22 01:27 33.93807 -118.40699 102 ft 17 kts 262°
2026-04-22 01:27 33.93793 -118.40835 102 ft 16 kts 263°
2026-04-22 01:28 33.93779 -118.40971 101 ft 16 kts 263°
2026-04-22 01:28 33.93767 -118.41081 101 ft 10 kts 263°
2026-04-22 01:28 33.93796 -118.41151 101 ft 9 kts 342°
2026-04-22 01:28 33.93875 -118.41162 96 ft 13 kts 352°
2026-04-22 01:29 33.93979 -118.41178 95 ft 16 kts 353°
2026-04-22 01:29 33.94100 -118.41196 95 ft 18 kts 353°
2026-04-22 01:29 33.94226 -118.41214 96 ft 16 kts 353°
2026-04-22 01:29 33.94325 -118.41230 96 ft 14 kts 352°
2026-04-22 01:30 33.94401 -118.41241 94 ft 11 kts 353°
2026-04-22 01:30 33.94483 -118.41253 94 ft 13 kts 353°
2026-04-22 01:30 33.94573 -118.41266 97 ft 13 kts 353°
2026-04-22 01:30 33.94652 -118.41278 95 ft 10 kts 353°
2026-04-22 01:31 33.94722 -118.41288 96 ft 10 kts 353°
2026-04-22 01:31 33.94785 -118.41274 99 ft 9 kts 39°
2026-04-22 01:31 33.94801 -118.41206 101 ft 9 kts 83°
2026-04-22 01:31 33.94808 -118.41130 100 ft 10 kts 83°
2026-04-22 01:32 33.94818 -118.41037 100 ft 13 kts 83°
2026-04-22 01:32 33.94830 -118.40920 100 ft 14 kts 83°
2026-04-22 01:32 33.94840 -118.40810 100 ft 14 kts 83°
2026-04-22 01:32 33.94856 -118.40680 100 ft 17 kts 79°
2026-04-22 01:33 33.94870 -118.40534 99 ft 19 kts 83°
2026-04-22 01:33 33.94885 -118.40391 99 ft 16 kts 83°
2026-04-22 01:33 33.94898 -118.40265 99 ft 16 kts 83°
2026-04-22 01:33 33.94909 -118.40150 99 ft 12 kts 83°
2026-04-22 01:34 33.94920 -118.40046 100 ft 13 kts 83°
2026-04-22 01:34 33.94927 -118.39976 99 ft 7 kts 81°
2026-04-22 01:34 33.94932 -118.39951 99 ft 0 kts 74°
2026-04-22 01:36 33.94942 -118.39939 101 ft 6 kts 48°
2026-04-22 01:36 33.94974 -118.39915 103 ft 4 kts 15°
2026-04-22 01:36 33.95023 -118.39923 106 ft 10 kts 328°
2026-04-22 01:37 33.95037 -118.39996 109 ft 8 kts 264°
2026-04-22 01:37 33.95036 -118.40009 109 ft 0 kts 263°
2026-04-22 01:37 33.95007 -118.40292 109 ft 67 kts 262°
2026-04-22 01:37 33.94926 -118.41084 108 ft 121 kts 263°
2026-04-22 01:38 33.94807 -118.42261 136 ft 159 kts 263°
2026-04-22 01:38 33.94681 -118.43578 602 ft 161 kts 261°
2026-04-22 01:38 33.94549 -118.44863 1441 ft 150 kts 263°
2026-04-22 01:38 33.94414 -118.46157 1846 ft 163 kts 263°
2026-04-22 01:39 33.94326 -118.47609 2125 ft 183 kts 268°
2026-04-22 01:39 33.94277 -118.49208 2499 ft 199 kts 267°
2026-04-22 01:39 33.94213 -118.50964 2762 ft 221 kts 265°
2026-04-22 01:39 33.94063 -118.52887 3197 ft 239 kts 264°
2026-04-22 01:40 33.93901 -118.54933 3886 ft 250 kts 264°
2026-04-22 01:40 33.93739 -118.57011 4865 ft 249 kts 264°
2026-04-22 01:40 33.93575 -118.59107 5705 ft 254 kts 264°
2026-04-22 01:40 33.93492 -118.61239 6580 ft 258 kts 275°
2026-04-22 01:41 33.94059 -118.63300 7271 ft 268 kts 297°
2026-04-22 01:41 33.95318 -118.64926 7427 ft 273 kts 323°
2026-04-22 01:41 33.96941 -118.66130 7575 ft 275 kts 325°
2026-04-22 01:41 33.98649 -118.67200 7702 ft 280 kts 336°
2026-04-22 01:42 34.00584 -118.67652 7909 ft 292 kts 355°
2026-04-22 01:42 34.02637 -118.67513 8544 ft 295 kts 359°
2026-04-22 01:42 34.04700 -118.67359 9395 ft 299 kts 358°
2026-04-22 01:42 34.06800 -118.67222 10149 ft 306 kts 357°
2026-04-22 01:43 34.08987 -118.66905 10499 ft 331 kts
2026-04-22 01:43 34.11327 -118.66347 10725 ft 353 kts
2026-04-22 01:43 34.13783 -118.65759 11235 ft 364 kts
2026-04-22 01:43 34.16283 -118.65157 11939 ft 368 kts
2026-04-22 01:44 34.18779 -118.64559 12622 ft 373 kts
2026-04-22 01:44 34.21347 -118.63948 13291 ft 379 kts
2026-04-22 01:44 34.23960 -118.63582 13961 ft 377 kts 355°
2026-04-22 01:44 34.26562 -118.63733 14585 ft 373 kts 345°
2026-04-22 01:45 34.29097 -118.64293 15292 ft 371 kts 341°
2026-04-22 01:45 34.31645 -118.64883 15951 ft 374 kts 341°
2026-04-22 01:45 34.34211 -118.65467 16604 ft 376 kts 341°
2026-04-22 01:45 34.36798 -118.66055 17181 ft 381 kts 341°
2026-04-22 01:46 34.39381 -118.66644 17836 ft 382 kts 341°
2026-04-22 01:46 34.41992 -118.67236 18515 ft 383 kts 340°
2026-04-22 01:46 34.44625 -118.67819 19040 ft 388 kts 341°
2026-04-22 01:46 34.47307 -118.68346 19564 ft 392 kts 342°
2026-04-22 01:47 34.50008 -118.68856 20117 ft 394 kts 342°
2026-04-22 01:47 34.52722 -118.69369 20654 ft 396 kts 342°
2026-04-22 01:47 34.55458 -118.69894 21178 ft 399 kts 342°
2026-04-22 01:47 34.58210 -118.70429 21702 ft 402 kts 341°
2026-04-22 01:48 34.60984 -118.70971 22249 ft 405 kts 341°
2026-04-22 01:48 34.63773 -118.71518 22775 ft 408 kts 341°
2026-04-22 01:48 34.66585 -118.72070 23233 ft 411 kts 341°
2026-04-22 01:48 34.69401 -118.72682 23733 ft 409 kts 337°
2026-04-22 01:49 34.72075 -118.73640 24156 ft 403 kts 330°
2026-04-22 01:49 34.74629 -118.74979 24555 ft 397 kts 323°
2026-04-22 01:49 34.77029 -118.76603 25006 ft 395 kts 321°
2026-04-22 01:49 34.79432 -118.78261 25407 ft 398 kts 321°
2026-04-22 01:50 34.81852 -118.79919 25816 ft 400 kts 321°
2026-04-22 01:50 34.84282 -118.81584 26191 ft 403 kts 321°
2026-04-22 01:50 34.86727 -118.83261 26580 ft 405 kts 321°
2026-04-22 01:50 34.89190 -118.84955 26941 ft 407 kts 321°
2026-04-22 01:51 34.91660 -118.86657 27246 ft 410 kts 321°
2026-04-22 01:51 34.94151 -118.88372 27686 ft 410 kts 321°
2026-04-22 01:51 34.96636 -118.90083 28045 ft 412 kts 321°
2026-04-22 01:51 34.99111 -118.91790 28377 ft 414 kts 321°
2026-04-22 01:52 35.01624 -118.93524 28711 ft 416 kts 321°
2026-04-22 01:52 35.04147 -118.95267 29051 ft 418 kts 321°
2026-04-22 01:52 35.06681 -118.97018 29364 ft 420 kts 321°
2026-04-22 01:52 35.09225 -118.98777 29679 ft 421 kts 321°
2026-04-22 01:53 35.11781 -119.00546 29992 ft 423 kts 321°
2026-04-22 01:53 35.14345 -119.02323 30273 ft 425 kts 321°
2026-04-22 01:53 35.16916 -119.04104 30536 ft 426 kts 321°
2026-04-22 01:53 35.19507 -119.05902 30789 ft 428 kts 321°
2026-04-22 01:54 35.22066 -119.07679 31053 ft 430 kts 321°
2026-04-22 01:54 35.24665 -119.09484 31361 ft 430 kts 321°
2026-04-22 01:54 35.27264 -119.11290 31704 ft 429 kts 321°
2026-04-22 01:54 35.29856 -119.13092 32039 ft 428 kts 321°
2026-04-22 01:55 35.32442 -119.14892 32364 ft 428 kts 321°
2026-04-22 01:55 35.35030 -119.16695 32693 ft 427 kts 320°
2026-04-22 01:55 35.37609 -119.18494 33012 ft 426 kts 320°
2026-04-22 01:55 35.40182 -119.20289 33318 ft 425 kts 320°
2026-04-22 01:56 35.42774 -119.22037 33611 ft 429 kts 324°
2026-04-22 01:56 35.45545 -119.23502 33909 ft 437 kts 330°
2026-04-22 01:56 35.48426 -119.24603 34167 ft 444 kts 335°
2026-04-22 01:56 35.51438 -119.25489 34398 ft 445 kts 336°
2026-04-22 01:57 35.54446 -119.26385 34630 ft 444 kts 336°
2026-04-22 01:57 35.57445 -119.27286 34855 ft 444 kts 336°
2026-04-22 01:57 35.60441 -119.28186 35072 ft 443 kts 336°
2026-04-22 01:57 35.63436 -119.29085 35278 ft 443 kts 336°
2026-04-22 01:58 35.66430 -119.29983 35476 ft 443 kts 336°
2026-04-22 01:58 35.69419 -119.30880 35675 ft 442 kts 336°
2026-04-22 01:58 35.72412 -119.31779 35863 ft 442 kts 336°
2026-04-22 01:58 35.75397 -119.32675 36047 ft 442 kts 336°
2026-04-22 01:59 35.78340 -119.33560 36220 ft 441 kts 336°
2026-04-22 01:59 35.81324 -119.34458 36394 ft 441 kts 336°
2026-04-22 01:59 35.84301 -119.35354 36553 ft 441 kts 336°
2026-04-22 01:59 35.87283 -119.36252 36713 ft 441 kts 336°
2026-04-22 02:00 35.90256 -119.37148 36865 ft 440 kts 336°
2026-04-22 02:00 35.93234 -119.38046 37023 ft 440 kts 336°
2026-04-22 02:00 35.96211 -119.38945 37162 ft 440 kts 336°
2026-04-22 02:00 35.99180 -119.39842 37305 ft 440 kts 336°
2026-04-22 02:01 36.02155 -119.40742 37434 ft 440 kts 336°
2026-04-22 02:01 36.05125 -119.41640 37560 ft 440 kts 336°
2026-04-22 02:01 36.08058 -119.42529 37680 ft 440 kts 337°
2026-04-22 02:01 36.11032 -119.43430 37786 ft 440 kts 337°
2026-04-22 02:02 36.14001 -119.44330 37911 ft 440 kts 337°
2026-04-22 02:02 36.16975 -119.45233 38011 ft 440 kts 337°
2026-04-22 02:02 36.22916 -119.47038 38079 ft 439 kts 337°
2026-04-22 02:03 36.28846 -119.48842 38083 ft 439 kts 337°
2026-04-22 02:03 36.34781 -119.50651 38085 ft 439 kts 337°
2026-04-22 02:04 36.43652 -119.53360 38069 ft 440 kts 337°
2026-04-22 02:05 36.49594 -119.55178 38067 ft 440 kts 337°
2026-04-22 02:05 36.55547 -119.57002 38070 ft 441 kts 337°
2026-04-22 02:06 36.61507 -119.58832 38068 ft 442 kts 337°
2026-04-22 02:06 36.67481 -119.60669 38072 ft 442 kts 337°
2026-04-22 02:07 36.73460 -119.62509 38073 ft 443 kts 337°
2026-04-22 02:07 36.79407 -119.64343 38073 ft 443 kts 337°
2026-04-22 02:08 36.85401 -119.66195 38067 ft 444 kts 337°
2026-04-22 02:08 36.91410 -119.68054 38060 ft 445 kts 336°
2026-04-22 02:09 36.97428 -119.69920 38051 ft 446 kts 336°
2026-04-22 02:09 37.03422 -119.71781 38049 ft 447 kts 337°
2026-04-22 02:10 37.09463 -119.73659 38046 ft 448 kts 337°
2026-04-22 02:10 37.15520 -119.75545 38048 ft 449 kts 337°
2026-04-22 02:11 37.21595 -119.77441 38055 ft 450 kts 337°
2026-04-22 02:11 37.27685 -119.79344 38052 ft 451 kts 337°
2026-04-22 02:12 37.33792 -119.81255 38049 ft 453 kts 338°
2026-04-22 02:12 37.39874 -119.83162 38054 ft 454 kts 338°
2026-04-22 02:13 37.46012 -119.85089 38060 ft 455 kts 338°
2026-04-22 02:13 37.52162 -119.87024 38071 ft 456 kts 338°
2026-04-22 02:14 37.58320 -119.88964 38068 ft 456 kts 338°
2026-04-22 02:14 37.64468 -119.90905 38070 ft 457 kts 338°
2026-04-22 02:15 37.70638 -119.92858 38070 ft 456 kts 339°
2026-04-22 02:15 37.76751 -119.94794 38073 ft 457 kts 339°
2026-04-22 02:16 37.82913 -119.96750 38077 ft 457 kts 339°
2026-04-22 02:16 37.89081 -119.98711 38069 ft 457 kts 339°
2026-04-22 02:17 37.95252 -120.00676 38072 ft 458 kts 339°
2026-04-22 02:17 38.01429 -120.02646 38070 ft 458 kts 339°
2026-04-22 02:18 38.07572 -120.04608 38070 ft 458 kts 340°
2026-04-22 02:18 38.13756 -120.06587 38064 ft 459 kts 340°
2026-04-22 02:19 38.19947 -120.08571 38059 ft 459 kts 340°
2026-04-22 02:19 38.25196 -120.09793 38061 ft 465 kts 349°
2026-04-22 02:20 38.31676 -120.10391 38061 ft 467 kts 350°
2026-04-22 02:20 38.38162 -120.10997 38039 ft 468 kts 350°
2026-04-22 02:21 38.45710 -120.11691 38041 ft 468 kts 350°
2026-04-22 02:21 38.51167 -120.12189 38037 ft 469 kts 351°
2026-04-22 02:22 38.57633 -120.12779 38024 ft 470 kts 351°
2026-04-22 02:22 38.64156 -120.13375 38017 ft 470 kts 351°
2026-04-22 02:23 38.70683 -120.13974 37991 ft 470 kts 351°
2026-04-22 02:23 38.77215 -120.14573 37991 ft 470 kts 351°
2026-04-22 02:24 38.83750 -120.15173 37977 ft 471 kts 351°
2026-04-22 02:24 38.90249 -120.15772 37980 ft 472 kts 351°
2026-04-22 02:25 38.96810 -120.16377 37980 ft 473 kts 351°
2026-04-22 02:25 39.03383 -120.16985 37979 ft 474 kts 351°
2026-04-22 02:26 39.09965 -120.17596 37977 ft 474 kts 351°
2026-04-22 02:26 39.16547 -120.18207 37970 ft 475 kts 351°
2026-04-22 02:27 39.23106 -120.18816 37967 ft 476 kts 351°
2026-04-22 02:27 39.29713 -120.19431 37970 ft 477 kts 351°
2026-04-22 02:28 39.36337 -120.20050 37973 ft 478 kts 351°
2026-04-22 02:28 39.42968 -120.20671 37971 ft 478 kts 351°
2026-04-22 02:29 39.49608 -120.21293 37969 ft 479 kts 351°
2026-04-22 02:29 39.56215 -120.21913 37961 ft 479 kts 351°
2026-04-22 02:30 39.62870 -120.22540 37958 ft 480 kts 352°
2026-04-22 02:30 39.69531 -120.23167 37947 ft 480 kts 352°
2026-04-22 02:31 39.76195 -120.23797 37946 ft 480 kts 352°
2026-04-22 02:31 39.82862 -120.24428 37940 ft 480 kts 352°
2026-04-22 02:32 39.89531 -120.25061 37934 ft 481 kts 352°
2026-04-22 02:32 39.96203 -120.25695 37928 ft 480 kts 352°
2026-04-22 02:33 40.02823 -120.26325 37912 ft 480 kts 352°
2026-04-22 02:33 40.09486 -120.26961 37911 ft 480 kts 352°
2026-04-22 02:34 40.16140 -120.27596 37910 ft 479 kts 352°
2026-04-22 02:34 40.22796 -120.28233 37921 ft 480 kts 352°
2026-04-22 02:35 40.29455 -120.28871 37922 ft 480 kts 352°
2026-04-22 02:35 40.36116 -120.29512 37929 ft 480 kts 352°
2026-04-22 02:36 40.42743 -120.30150 37930 ft 481 kts 352°
2026-04-22 02:36 40.49414 -120.30795 37924 ft 481 kts 352°
2026-04-22 02:37 40.56090 -120.31440 37912 ft 481 kts 352°
2026-04-22 02:37 40.62780 -120.32089 37900 ft 482 kts 352°
2026-04-22 02:38 40.69430 -120.32735 37898 ft 483 kts 353°
2026-04-22 02:38 40.76125 -120.33386 37904 ft 483 kts 353°
2026-04-22 02:39 40.82833 -120.34040 37908 ft 483 kts 353°
2026-04-22 02:39 40.89541 -120.34696 37911 ft 484 kts 353°
2026-04-22 02:40 40.96257 -120.35353 37907 ft 483 kts 353°
2026-04-22 02:40 41.02938 -120.36008 37907 ft 481 kts 353°
2026-04-22 02:41 41.09584 -120.36662 37909 ft 482 kts 353°
2026-04-22 02:41 41.16273 -120.37321 37910 ft 482 kts 353°
2026-04-22 02:42 41.22964 -120.37981 37904 ft 482 kts 353°
2026-04-22 02:42 41.29652 -120.38642 37897 ft 482 kts 353°
2026-04-22 02:43 41.36329 -120.39303 37888 ft 481 kts 353°
2026-04-22 02:43 41.43012 -120.39967 37878 ft 481 kts 353°
2026-04-22 02:44 41.49642 -120.40628 37870 ft 481 kts 353°
2026-04-22 02:44 41.56318 -120.41294 37871 ft 481 kts 353°
2026-04-22 02:45 41.62997 -120.41961 37872 ft 481 kts 353°
2026-04-22 02:45 41.69681 -120.42630 37877 ft 482 kts 353°
2026-04-22 02:46 41.76372 -120.43302 37884 ft 482 kts 354°
2026-04-22 02:46 41.83069 -120.43975 37888 ft 483 kts 354°
2026-04-22 02:47 41.89730 -120.44647 37886 ft 483 kts 354°
2026-04-22 02:47 41.96443 -120.45325 37876 ft 484 kts 354°
2026-04-22 02:48 42.03172 -120.46006 37878 ft 485 kts 354°
2026-04-22 02:48 42.09910 -120.46690 37876 ft 486 kts 354°
2026-04-22 02:49 42.16660 -120.47376 37885 ft 487 kts 354°
2026-04-22 02:49 42.23369 -120.48059 37881 ft 486 kts 354°
2026-04-22 02:50 42.30109 -120.48747 37878 ft 485 kts 354°
2026-04-22 02:50 42.36845 -120.49436 37883 ft 486 kts 354°
2026-04-22 02:51 42.43586 -120.50142 37875 ft 486 kts 352°
2026-04-22 02:51 42.50195 -120.51883 37879 ft 484 kts 341°
2026-04-22 02:52 42.56427 -120.55072 37866 ft 481 kts 333°
2026-04-22 02:52 42.62544 -120.58755 37861 ft 481 kts 334°
2026-04-22 02:53 42.68665 -120.62439 37873 ft 481 kts 334°
2026-04-22 02:53 42.74782 -120.66149 37865 ft 481 kts 334°
2026-04-22 02:54 42.80890 -120.69870 37874 ft 481 kts 334°
2026-04-22 02:54 42.86963 -120.73576 37882 ft 481 kts 334°
2026-04-22 02:55 42.93071 -120.77312 37882 ft 481 kts 334°
2026-04-22 02:55 42.99187 -120.81061 37877 ft 482 kts 334°
2026-04-22 02:56 43.05303 -120.84819 37884 ft 482 kts 334°
2026-04-22 02:56 43.11418 -120.88583 37876 ft 481 kts 333°
2026-04-22 02:57 43.17502 -120.92337 37876 ft 480 kts 334°
2026-04-22 02:57 43.23595 -120.96105 37875 ft 480 kts 334°
2026-04-22 02:58 43.29640 -120.99851 37875 ft 480 kts 334°
2026-04-22 02:58 43.35722 -121.03628 37873 ft 480 kts 334°
2026-04-22 02:59 43.41797 -121.07409 37873 ft 479 kts 334°
2026-04-22 02:59 43.47872 -121.11199 37877 ft 479 kts 334°
2026-04-22 03:00 43.53948 -121.14997 37876 ft 479 kts 334°
2026-04-22 03:00 43.59983 -121.18779 37878 ft 480 kts 334°
2026-04-22 03:01 43.66058 -121.22594 37880 ft 480 kts 334°
2026-04-22 03:01 43.72132 -121.26416 37875 ft 479 kts 334°
2026-04-22 03:02 43.78193 -121.30238 37872 ft 478 kts 334°
2026-04-22 03:02 43.84243 -121.34065 37868 ft 478 kts 334°
2026-04-22 03:03 43.90246 -121.37870 37872 ft 477 kts 334°
2026-04-22 03:03 43.96280 -121.41701 37870 ft 477 kts 334°
2026-04-22 03:04 44.02318 -121.45545 37871 ft 477 kts 334°
2026-04-22 03:04 44.08308 -121.49366 37871 ft 477 kts 334°
2026-04-22 03:05 44.14334 -121.53219 37876 ft 477 kts 334°
2026-04-22 03:05 44.20358 -121.57080 37880 ft 477 kts 334°
2026-04-22 03:06 44.26390 -121.60954 37885 ft 477 kts 334°
2026-04-22 03:06 44.32418 -121.64835 37889 ft 478 kts 334°
2026-04-22 03:07 44.38415 -121.68704 37897 ft 478 kts 334°
2026-04-22 03:07 44.44449 -121.72607 37904 ft 479 kts 334°
2026-04-22 03:08 44.50499 -121.76528 37907 ft 479 kts 334°
2026-04-22 03:08 44.56555 -121.80462 37919 ft 480 kts 334°
2026-04-22 03:09 44.62615 -121.84408 37923 ft 481 kts 334°
2026-04-22 03:09 44.68632 -121.88335 37921 ft 480 kts 334°
2026-04-22 03:10 44.74680 -121.92291 37934 ft 480 kts 334°
2026-04-22 03:10 44.80732 -121.96259 37940 ft 480 kts 334°
2026-04-22 03:11 44.86778 -122.00233 37940 ft 479 kts 334°
2026-04-22 03:11 44.92816 -122.04210 37939 ft 479 kts 334°
2026-04-22 03:12 44.98847 -122.08193 37949 ft 479 kts 334°
2026-04-22 03:12 45.07862 -122.14163 37941 ft 478 kts 334°
2026-04-22 03:13 45.13870 -122.18153 37945 ft 477 kts 334°
2026-04-22 03:13 45.19872 -122.22149 37943 ft 476 kts 334°
2026-04-22 03:14 45.25868 -122.26149 37941 ft 476 kts 334°
2026-04-22 03:14 45.31849 -122.30147 37940 ft 475 kts 334°
2026-04-22 03:15 45.37791 -122.34133 37940 ft 475 kts 334°
2026-04-22 03:15 45.43773 -122.38154 37941 ft 475 kts 334°
2026-04-22 03:16 45.49756 -122.42185 37936 ft 475 kts 334°
2026-04-22 03:16 45.55735 -122.46222 37942 ft 475 kts 334°
2026-04-22 03:17 45.61713 -122.50268 37951 ft 475 kts 334°
2026-04-22 03:17 45.67639 -122.54288 37942 ft 474 kts 334°
2026-04-22 03:18 45.73663 -122.58079 37963 ft 473 kts 340°
2026-04-22 03:18 45.76820 -122.59450 37858 ft 474 kts 346°
2026-04-22 03:18 45.80046 -122.60426 37596 ft 475 kts 351°
2026-04-22 03:19 45.83307 -122.61211 37181 ft 476 kts 350°
2026-04-22 03:19 45.86586 -122.62032 36412 ft 482 kts 350°
2026-04-22 03:19 45.89869 -122.62859 35586 ft 487 kts 350°
2026-04-22 03:19 45.93215 -122.63699 34799 ft 490 kts 350°
2026-04-22 03:20 45.96581 -122.64540 34044 ft 494 kts 350°
2026-04-22 03:20 45.99980 -122.65388 33220 ft 496 kts 350°
2026-04-22 03:20 46.03376 -122.66236 32433 ft 497 kts 351°
2026-04-22 03:20 46.06805 -122.67093 31458 ft 503 kts 351°
2026-04-22 03:21 46.10266 -122.67956 30838 ft 504 kts 352°
2026-04-22 03:21 46.13748 -122.68717 30035 ft 508 kts 354°
2026-04-22 03:21 46.17245 -122.69383 29383 ft 505 kts 355°
2026-04-22 03:21 46.20731 -122.70034 28689 ft 503 kts 355°
2026-04-22 03:22 46.24142 -122.70682 27960 ft 502 kts 354°
2026-04-22 03:22 46.27599 -122.71354 27265 ft 499 kts 354°
2026-04-22 03:22 46.31032 -122.72025 26587 ft 497 kts 355°
2026-04-22 03:22 46.34459 -122.72313 25965 ft 490 kts
2026-04-22 03:23 46.37863 -122.72423 25288 ft 488 kts
2026-04-22 03:23 46.41250 -122.72547 24608 ft 486 kts
2026-04-22 03:23 46.44622 -122.72673 23982 ft 483 kts
2026-04-22 03:23 46.47962 -122.72796 23425 ft 477 kts
2026-04-22 03:24 46.51253 -122.72917 22864 ft 470 kts
2026-04-22 03:24 46.54507 -122.73035 22288 ft 464 kts
2026-04-22 03:24 46.57704 -122.73150 21506 ft 455 kts
2026-04-22 03:24 46.60795 -122.73261 20690 ft 447 kts
2026-04-22 03:25 46.63884 -122.73371 19900 ft 439 kts
2026-04-22 03:25 46.66892 -122.73479 19306 ft 427 kts
2026-04-22 03:25 46.69828 -122.73584 18707 ft 416 kts
2026-04-22 03:25 46.72658 -122.73687 18454 ft 396 kts
2026-04-22 03:26 46.75349 -122.73784 18214 ft 378 kts
2026-04-22 03:26 46.77910 -122.73355 17615 ft 366 kts 20°
2026-04-22 03:26 46.80157 -122.71830 17204 ft 354 kts 38°
2026-04-22 03:26 46.82048 -122.69633 17044 ft 341 kts 43°
2026-04-22 03:27 46.83857 -122.67487 16818 ft 330 kts 42°
2026-04-22 03:27 46.85614 -122.65428 16460 ft 327 kts 41°
2026-04-22 03:27 46.87402 -122.63395 16075 ft 324 kts 40°
2026-04-22 03:27 46.89178 -122.61393 15687 ft 321 kts 40°
2026-04-22 03:28 46.90941 -122.59402 15297 ft 319 kts 39°
2026-04-22 03:28 46.92708 -122.57452 14915 ft 317 kts 35°
2026-04-22 03:28 46.94637 -122.55918 14561 ft 315 kts 24°
2026-04-22 03:28 46.96703 -122.54900 14232 ft 312 kts 17°
2026-04-22 03:29 46.98769 -122.54019 13922 ft 307 kts 17°
2026-04-22 03:29 47.00802 -122.53132 13595 ft 303 kts 17°
2026-04-22 03:29 47.02814 -122.52249 13179 ft 301 kts 17°
2026-04-22 03:29 47.04766 -122.51393 12777 ft 300 kts 16°
2026-04-22 03:30 47.06757 -122.50521 12361 ft 298 kts 16°
2026-04-22 03:30 47.08771 -122.49845 11971 ft 296 kts
2026-04-22 03:30 47.10810 -122.49490 11564 ft 294 kts
2026-04-22 03:30 47.12837 -122.49126 11178 ft 293 kts
2026-04-22 03:31 47.14859 -122.48756 10800 ft 291 kts
2026-04-22 03:31 47.16861 -122.48388 10394 ft 290 kts
2026-04-22 03:31 47.18846 -122.48024 10173 ft 285 kts
2026-04-22 03:31 47.20833 -122.47684 10077 ft 289 kts
2026-04-22 03:32 47.22781 -122.47390 9992 ft 279 kts
2026-04-22 03:32 47.24665 -122.47114 9804 ft 266 kts
2026-04-22 03:32 47.26492 -122.46847 9329 ft 263 kts
2026-04-22 03:32 47.28305 -122.46578 8785 ft 261 kts
2026-04-22 03:33 47.30101 -122.46308 8304 ft 258 kts
2026-04-22 03:33 47.31862 -122.46042 8099 ft 257 kts
2026-04-22 03:33 47.33655 -122.45768 8009 ft 258 kts
2026-04-22 03:33 47.35435 -122.45518 8008 ft 257 kts
2026-04-22 03:34 47.37235 -122.45515 7960 ft 260 kts 359°
2026-04-22 03:34 47.39028 -122.45523 7886 ft 256 kts 359°
2026-04-22 03:34 47.40803 -122.45527 7612 ft 254 kts 359°
2026-04-22 03:34 47.42522 -122.45529 7475 ft 245 kts 359°
2026-04-22 03:35 47.44186 -122.45530 7372 ft 234 kts 359°
2026-04-22 03:35 47.45795 -122.45531 7087 ft 230 kts 359°
2026-04-22 03:35 47.47397 -122.45534 6737 ft 230 kts 359°
2026-04-22 03:35 47.48994 -122.45536 6405 ft 229 kts 359°
2026-04-22 03:36 47.50580 -122.45538 6056 ft 227 kts 359°
2026-04-22 03:36 47.52157 -122.45544 5704 ft 226 kts 359°
2026-04-22 03:36 47.53727 -122.45580 5366 ft 225 kts 358°
2026-04-22 03:36 47.55269 -122.45628 5038 ft 224 kts 358°
2026-04-22 03:37 47.56822 -122.45675 4716 ft 222 kts 358°
2026-04-22 03:37 47.58351 -122.45718 4509 ft 215 kts 359°
2026-04-22 03:37 47.59812 -122.45756 4363 ft 206 kts 359°
2026-04-22 03:37 47.61235 -122.45792 4088 ft 204 kts 359°
2026-04-22 03:38 47.62637 -122.45826 3993 ft 204 kts 359°
2026-04-22 03:38 47.64069 -122.45862 3984 ft 205 kts 359°
2026-04-22 03:38 47.65492 -122.45897 3985 ft 205 kts 359°
2026-04-22 03:38 47.66917 -122.45933 3978 ft 205 kts 359°
2026-04-22 03:39 47.68320 -122.45966 3980 ft 204 kts
2026-04-22 03:39 47.69672 -122.45427 3989 ft 205 kts 34°
2026-04-22 03:39 47.70568 -122.43804 3988 ft 207 kts 70°
2026-04-22 03:39 47.70808 -122.41697 3982 ft 208 kts 84°
2026-04-22 03:40 47.70918 -122.39574 3988 ft 205 kts 85°
2026-04-22 03:40 47.70884 -122.37456 3979 ft 207 kts 106°
2026-04-22 03:40 47.70101 -122.35689 3990 ft 209 kts 141°
2026-04-22 03:40 47.68922 -122.34425 3988 ft 209 kts 145°
2026-04-22 03:41 47.67747 -122.33210 3988 ft 209 kts 145°
2026-04-22 03:41 47.66510 -122.32096 3987 ft 208 kts 159°
2026-04-22 03:41 47.65167 -122.31661 3980 ft 188 kts 176°
2026-04-22 03:41 47.63918 -122.31613 3888 ft 174 kts 181°
2026-04-22 03:42 47.62724 -122.31645 3662 ft 170 kts 181°
2026-04-22 03:42 47.61555 -122.31653 3451 ft 166 kts 181°
2026-04-22 03:42 47.60414 -122.31664 3230 ft 162 kts 181°
2026-04-22 03:42 47.59302 -122.31673 3013 ft 156 kts 181°
2026-04-22 03:43 47.58233 -122.31683 2814 ft 158 kts 181°
2026-04-22 03:43 47.57137 -122.31692 2588 ft 156 kts 181°
2026-04-22 03:43 47.56053 -122.31701 2380 ft 155 kts 181°
2026-04-22 03:43 47.55010 -122.31710 2184 ft 144 kts 181°
2026-04-22 03:44 47.54052 -122.31718 1984 ft 133 kts 181°
2026-04-22 03:44 47.53116 -122.31727 1808 ft 135 kts 182°
2026-04-22 03:44 47.52182 -122.31735 1624 ft 133 kts 182°
2026-04-22 03:44 47.51256 -122.31743 1446 ft 133 kts 181°
2026-04-22 03:45 47.50333 -122.31751 1259 ft 132 kts 182°
2026-04-22 03:45 47.49412 -122.31759 1068 ft 132 kts 181°
2026-04-22 03:45 47.48508 -122.31767 887 ft 130 kts 182°
2026-04-22 03:45 47.47611 -122.31774 702 ft 129 kts 182°
2026-04-22 03:46 47.46720 -122.31783 535 ft 127 kts 182°
2026-04-22 03:46 47.45858 -122.31789 436 ft 118 kts 182°
2026-04-22 03:46 47.45153 -122.31800 395 ft 75 kts 180°
2026-04-22 03:46 47.44789 -122.31802 388 ft 44 kts 180°
2026-04-22 03:47 47.44486 -122.31802 378 ft 42 kts 174°
2026-04-22 03:47 47.44211 -122.31671 371 ft 41 kts 150°
2026-04-22 03:47 47.44003 -122.31497 367 ft 31 kts 150°
2026-04-22 03:47 47.43832 -122.31340 371 ft 22 kts 134°
2026-04-22 03:48 47.43808 -122.31154 371 ft 19 kts 90°
2026-04-22 03:48 47.43807 -122.30949 373 ft 21 kts 90°
2026-04-22 03:48 47.43807 -122.30735 375 ft 22 kts 90°
2026-04-22 03:48 47.43806 -122.30642 377 ft 0 kts 85°
2026-04-22 03:50 47.43807 -122.30642 377 ft 0 kts 83°
2026-04-22 03:50 47.43814 -122.30640 378 ft 4 kts 20°
2026-04-22 03:51 47.43912 -122.30638 381 ft 19 kts
2026-04-22 03:51 47.44050 -122.30636 384 ft 22 kts
2026-04-22 03:51 47.44200 -122.30635 388 ft 19 kts 359°
2026-04-22 03:51 47.44320 -122.30633 392 ft 17 kts
2026-04-22 03:52 47.44424 -122.30632 394 ft 15 kts
2026-04-22 03:52 47.44539 -122.30630 395 ft 18 kts
2026-04-22 03:52 47.44666 -122.30631 400 ft 20 kts 360°
2026-04-22 03:52 47.44817 -122.30629 405 ft 23 kts
2026-04-22 03:53 47.44967 -122.30628 409 ft 7 kts 359°
2026-04-22 03:53 47.44975 -122.30628 410 ft 4 kts 359°
2026-04-22 03:53 47.45041 -122.30603 413 ft 9 kts 56°
2026-04-22 03:53 47.45045 -122.30478 413 ft 16 kts 90°
2026-04-22 03:54 47.45040 -122.30306 411 ft 17 kts 99°
2026-04-22 03:54 47.44990 -122.30194 407 ft 15 kts 131°
2026-04-22 03:54 47.44916 -122.30064 408 ft 17 kts 130°
2026-04-22 03:54 47.44826 -122.29983 408 ft 13 kts 166°
2026-04-22 03:55 47.44760 -122.30001 405 ft 8 kts 208°
2026-04-22 03:55 47.44703 -122.30064 404 ft 14 kts 221°
2026-04-22 03:55 47.44676 -122.30185 405 ft 15 kts 275°
2026-04-22 03:55 47.44706 -122.30286 405 ft 10 kts 305°
2026-04-22 03:56 47.44739 -122.30322 407 ft 4 kts 358°
2026-04-22 03:56 47.44745 -122.30320 407 ft 0 kts 12°
2026-04-22 03:56 47.44760 -122.30307 405 ft 4 kts 32°
2026-04-22 03:56 47.44772 -122.30293 405 ft 4 kts 39°
2026-04-22 03:57 47.44787 -122.30274 407 ft 3 kts 40°
2026-04-22 03:57 47.44792 -122.30269 407 ft 0 kts 39°